| time (UTC) | temp F | wind direction | speed MPH | gust MPH | rain 1hr in | rain 24hr in | rain mn in | humidity % | barometer mb |
| 20260504192003 | 71 | 161 | 4.0 | 11.0 | 0.00 | 0.03 | 0.00 | 45 | 1010.3 |
| 20260504191716 | 71 | 179 | 4.0 | 11.0 | 0.00 | 0.03 | 0.00 | 45 | 1010.3 |
| 20260504191003 | 68 | 178 | 2.0 | 6.0 | 0.00 | 0.03 | 0.00 | 50 | 1010.4 |
| 20260504190503 | 67 | 144 | 2.0 | 6.0 | 0.00 | 0.03 | 0.00 | 53 | 1010.4 |
| 20260504190003 | 65 | 163 | 4.0 | 8.0 | 0.00 | 0.03 | 0.00 | 55 | 1010.5 |
| 20260504185716 | 66 | 169 | 5.0 | 10.0 | 0.00 | 0.03 | 0.00 | 54 | 1010.5 |
| 20260504185003 | 67 | 182 | 4.0 | 10.0 | 0.00 | 0.03 | 0.00 | 52 | 1010.6 |
| 20260504184503 | 66 | 184 | 5.0 | 9.0 | 0.00 | 0.03 | 0.00 | 53 | 1010.7 |
| 20260504184003 | 66 | 189 | 5.0 | 9.0 | 0.00 | 0.03 | 0.00 | 55 | 1010.7 |
| 20260504183503 | 65 | 199 | 4.0 | 8.0 | 0.00 | 0.03 | 0.00 | 55 | 1010.8 |
| 20260504183003 | 64 | 198 | 3.0 | 8.0 | 0.00 | 0.03 | 0.00 | 58 | 1010.8 |
| 20260504182503 | 63 | 193 | 4.0 | 8.0 | 0.00 | 0.03 | 0.00 | 58 | 1010.9 |
| 20260504182219 | 63 | 178 | 4.0 | 8.0 | 0.00 | 0.03 | 0.00 | 61 | 1011.0 |
| 20260504181503 | 62 | 177 | 4.0 | 8.0 | 0.00 | 0.03 | 0.00 | 60 | 1010.9 |
| 20260504181003 | 63 | 182 | 4.0 | 8.0 | 0.00 | 0.03 | 0.00 | 62 | 1010.9 |
| 20260504180503 | 62 | 190 | 4.0 | 8.0 | 0.00 | 0.03 | 0.00 | 63 | 1010.9 |
| 20260504180003 | 62 | 197 | 3.0 | 8.0 | 0.00 | 0.03 | 0.00 | 63 | 1010.9 |
| 20260504175503 | 60 | 171 | 4.0 | 9.0 | 0.00 | 0.03 | 0.00 | 64 | 1011.0 |
| 20260504175003 | 60 | 165 | 3.0 | 9.0 | 0.00 | 0.03 | 0.00 | 68 | 1011.1 |
| 20260504174503 | 60 | 173 | 3.0 | 7.0 | 0.00 | 0.03 | 0.00 | 67 | 1011.1 |
| 20260504174003 | 59 | 187 | 3.0 | 7.0 | 0.00 | 0.03 | 0.00 | 68 | 1011.1 |
| 20260504173503 | 59 | 200 | 3.0 | 5.0 | 0.00 | 0.03 | 0.00 | 67 | 1011.1 |
| 20260504173003 | 58 | 197 | 3.0 | 6.0 | 0.00 | 0.03 | 0.00 | 69 | 1011.1 |
| 20260504172503 | 59 | 200 | 3.0 | 6.0 | 0.00 | 0.03 | 0.00 | 69 | 1011.2 |
| 20260504172219 | 58 | 205 | 3.0 | 6.0 | 0.00 | 0.03 | 0.00 | 71 | 1011.2 |
| 20260504171715 | 57 | 199 | 3.0 | 6.0 | 0.00 | 0.03 | 0.00 | 70 | 1011.2 |
| 20260504171003 | 57 | 199 | 3.0 | 5.0 | 0.00 | 0.03 | 0.00 | 73 | 1011.3 |
| 20260504170503 | 56 | 219 | 3.0 | 5.0 | 0.00 | 0.03 | 0.00 | 74 | 1011.3 |
| 20260504170218 | 56 | 226 | 3.0 | 5.0 | 0.00 | 0.03 | 0.00 | 73 | 1011.3 |
| 20260504151003 | 48 | 185 | 1.0 | 3.0 | 0.00 | 0.03 | 0.00 | 82 | 1011.5 |
| 20260504150503 | 48 | 172 | 1.0 | 3.0 | 0.00 | 0.03 | 0.00 | 83 | 1011.6 |
| 20260504141003 | 47 | 56 | 1.0 | 3.0 | 0.00 | 0.03 | 0.00 | 79 | 1011.2 |
| 20260504140503 | 47 | 47 | 1.0 | 3.0 | 0.00 | 0.03 | 0.00 | 79 | 1011.2 |
| 20260504140217 | 47 | 44 | 1.0 | 3.0 | 0.00 | 0.03 | 0.00 | 79 | 1011.2 |
| 20260504130503 | 48 | 9 | 1.0 | 3.0 | 0.00 | 0.03 | 0.00 | 75 | 1010.6 |
| 20260504110503 | 47 | 32 | 1.0 | 3.0 | 0.00 | 0.03 | 0.00 | 83 | 1010.8 |
| 20260504100503 | 48 | 165 | 1.0 | 3.0 | 0.00 | 0.03 | 0.00 | 81 | 1011.1 |
| 20260504081503 | 51 | 357 | 1.0 | 2.0 | 0.00 | 0.03 | 0.00 | 71 | 1011.1 |
| 20260504081003 | 52 | 22 | 1.0 | 2.0 | 0.00 | 0.03 | 0.00 | 71 | 1011.1 |
| 20260504080503 | 52 | 62 | 1.0 | 2.0 | 0.00 | 0.03 | 0.00 | 70 | 1011.2 |
| 20260504080219 | 52 | 61 | 1.0 | 2.0 | 0.00 | 0.03 | 0.00 | 69 | 1011.3 |
| 20260504050503 | 60 | 357 | 5.0 | 13.0 | 0.00 | 0.03 | 0.03 | 46 | 1010.3 |
| 20260504050003 | 60 | 349 | 6.0 | 14.0 | 0.00 | 0.03 | 0.03 | 45 | 1010.2 |
| 20260504045503 | 60 | 347 | 5.0 | 14.0 | 0.00 | 0.03 | 0.03 | 45 | 1010.3 |
| 20260504045003 | 60 | 355 | 5.0 | 12.0 | 0.00 | 0.03 | 0.03 | 45 | 1010.5 |
| 20260504044504 | 61 | 359 | 6.0 | 12.0 | 0.00 | 0.03 | 0.03 | 44 | 1010.6 |
| 20260504044003 | 61 | 357 | 5.0 | 11.0 | 0.00 | 0.03 | 0.03 | 44 | 1010.6 |
| 20260504043503 | 61 | 9 | 3.0 | 8.0 | 0.00 | 0.03 | 0.03 | 44 | 1010.8 |
| 20260504043003 | 61 | 18 | 4.0 | 7.0 | 0.00 | 0.03 | 0.03 | 44 | 1010.9 |
| 20260504042503 | 61 | 12 | 4.0 | 8.0 | 0.00 | 0.03 | 0.03 | 45 | 1010.9 |
| 20260504042003 | 61 | 11 | 4.0 | 8.0 | 0.00 | 0.03 | 0.03 | 46 | 1010.9 |
| 20260504041504 | 61 | 17 | 4.0 | 10.0 | 0.00 | 0.03 | 0.03 | 45 | 1010.8 |
| 20260504041216 | 61 | 17 | 4.0 | 10.0 | 0.00 | 0.03 | 0.03 | 45 | 1010.7 |
| 20260504040503 | 60 | 18 | 4.0 | 11.0 | 0.00 | 0.03 | 0.03 | 46 | 1010.5 |
| 20260504040003 | 60 | 15 | 3.0 | 7.0 | 0.00 | 0.03 | 0.03 | 48 | 1010.6 |
| 20260504035503 | 60 | 23 | 4.0 | 7.0 | 0.00 | 0.03 | 0.03 | 48 | 1010.5 |
| 20260504035003 | 60 | 19 | 5.0 | 12.0 | 0.00 | 0.03 | 0.03 | 48 | 1010.4 |
| 20260504034503 | 60 | 14 | 5.0 | 12.0 | 0.00 | 0.03 | 0.03 | 47 | 1010.3 |
| 20260504034003 | 60 | 9 | 6.0 | 12.0 | 0.00 | 0.03 | 0.03 | 49 | 1010.2 |
| 20260504033503 | 60 | 4 | 6.0 | 14.0 | 0.00 | 0.03 | 0.03 | 49 | 1010.1 |
| 20260504033219 | 60 | 2 | 7.0 | 14.0 | 0.00 | 0.03 | 0.03 | 49 | 1010.1 |
| 20260504032503 | 60 | 358 | 6.0 | 15.0 | 0.00 | 0.03 | 0.03 | 50 | 1010.0 |
| 20260504032003 | 61 | 360 | 5.0 | 10.0 | 0.00 | 0.03 | 0.03 | 48 | 1010.0 |
| 20260504031503 | 61 | 355 | 5.0 | 9.0 | 0.00 | 0.03 | 0.03 | 46 | 1010.0 |
| 20260504031003 | 61 | 360 | 5.0 | 12.0 | 0.00 | 0.03 | 0.03 | 47 | 1009.9 |
| 20260504030504 | 61 | 354 | 5.0 | 13.0 | 0.00 | 0.03 | 0.03 | 47 | 1009.9 |
| 20260504030003 | 61 | 351 | 6.0 | 15.0 | 0.00 | 0.03 | 0.03 | 47 | 1010.0 |
| 20260504025503 | 61 | 358 | 7.0 | 15.0 | 0.00 | 0.03 | 0.03 | 47 | 1010.1 |
| 20260504025219 | 61 | 1 | 6.0 | 13.0 | 0.00 | 0.03 | 0.03 | 47 | 1010.2 |
| 20260504024503 | 62 | 7 | 6.0 | 15.0 | 0.00 | 0.03 | 0.03 | 49 | 1010.2 |
| 20260504024003 | 62 | 360 | 6.0 | 14.0 | 0.00 | 0.03 | 0.03 | 50 | 1010.4 |
| 20260504023503 | 62 | 348 | 5.0 | 14.0 | 0.00 | 0.03 | 0.03 | 50 | 1010.4 |
| 20260504023003 | 62 | 345 | 5.0 | 12.0 | 0.00 | 0.03 | 0.03 | 49 | 1010.5 |
| 20260504022503 | 63 | 342 | 6.0 | 12.0 | 0.00 | 0.03 | 0.03 | 48 | 1010.5 |
| 20260504022003 | 63 | 342 | 5.0 | 12.0 | 0.00 | 0.03 | 0.03 | 48 | 1010.5 |
| 20260504021503 | 63 | 347 | 4.0 | 11.0 | 0.00 | 0.03 | 0.03 | 48 | 1010.6 |
| 20260504021003 | 63 | 343 | 3.0 | 11.0 | 0.00 | 0.03 | 0.03 | 48 | 1010.6 |
| 20260504020503 | 63 | 329 | 3.0 | 6.0 | 0.00 | 0.03 | 0.03 | 49 | 1010.7 |
| 20260504020004 | 63 | 306 | 2.0 | 5.0 | 0.00 | 0.03 | 0.03 | 50 | 1010.7 |
| 20260504015503 | 64 | 297 | 2.0 | 5.0 | 0.00 | 0.03 | 0.03 | 50 | 1010.8 |
| 20260504015003 | 64 | 264 | 2.0 | 5.0 | 0.00 | 0.03 | 0.03 | 52 | 1010.7 |
| 20260504014503 | 64 | 250 | 2.0 | 5.0 | 0.00 | 0.03 | 0.03 | 52 | 1010.5 |
| 20260504014003 | 64 | 253 | 2.0 | 5.0 | 0.00 | 0.03 | 0.03 | 54 | 1010.5 |
| 20260504013718 | 64 | 256 | 2.0 | 6.0 | 0.00 | 0.03 | 0.03 | 52 | 1010.5 |
| 20260504013003 | 64 | 261 | 3.0 | 8.0 | 0.00 | 0.03 | 0.03 | 52 | 1010.4 |
| 20260504012716 | 64 | 255 | 4.0 | 10.0 | 0.00 | 0.03 | 0.03 | 52 | 1010.4 |
| 20260504012217 | 64 | 250 | 5.0 | 10.0 | 0.00 | 0.03 | 0.03 | 53 | 1010.4 |
| 20260504011503 | 66 | 252 | 4.0 | 10.0 | 0.00 | 0.03 | 0.03 | 49 | 1010.5 |
| 20260504011003 | 67 | 264 | 3.0 | 10.0 | 0.00 | 0.03 | 0.03 | 46 | 1010.6 |
| 20260504010503 | 67 | 273 | 3.0 | 8.0 | 0.00 | 0.03 | 0.03 | 44 | 1010.6 |
| 20260504010003 | 66 | 255 | 3.0 | 8.0 | 0.00 | 0.03 | 0.03 | 46 | 1010.7 |
| 20260504005503 | 65 | 240 | 3.0 | 6.0 | 0.00 | 0.03 | 0.03 | 52 | 1010.7 |
| 20260504005004 | 65 | 241 | 3.0 | 6.0 | 0.00 | 0.03 | 0.03 | 56 | 1010.7 |
| 20260504004503 | 65 | 245 | 3.0 | 6.0 | 0.00 | 0.03 | 0.03 | 53 | 1010.7 |
| 20260504004003 | 64 | 237 | 3.0 | 6.0 | 0.00 | 0.03 | 0.03 | 58 | 1010.7 |
| 20260504003503 | 64 | 215 | 4.0 | 7.0 | 0.00 | 0.03 | 0.03 | 57 | 1010.7 |
| 20260504003003 | 64 | 219 | 3.0 | 7.0 | 0.00 | 0.03 | 0.03 | 57 | 1010.7 |
| 20260504002503 | 64 | 263 | 2.0 | 5.0 | 0.00 | 0.03 | 0.03 | 56 | 1010.7 |
| 20260504002003 | 64 | 336 | 1.0 | 2.0 | 0.00 | 0.03 | 0.03 | 49 | 1010.7 |
| 20260504001503 | 64 | 358 | 2.0 | 4.0 | 0.00 | 0.03 | 0.03 | 50 | 1010.7 |
| 20260504001003 | 64 | 2 | 2.0 | 4.0 | 0.00 | 0.03 | 0.03 | 48 | 1010.7 |
| 20260504000503 | 63 | 5 | 2.0 | 5.0 | 0.00 | 0.03 | 0.03 | 51 | 1010.7 |
| 20260504000003 | 63 | 6 | 3.0 | 6.0 | 0.00 | 0.03 | 0.03 | 51 | 1010.8 |
| 20260503235503 | 62 | 1 | 3.0 | 6.0 | 0.00 | 0.03 | 0.03 | 55 | 1010.8 |
| 20260503235004 | 62 | 352 | 3.0 | 5.0 | 0.00 | 0.03 | 0.03 | 52 | 1010.9 |
| 20260503234503 | 62 | 334 | 3.0 | 5.0 | 0.00 | 0.03 | 0.03 | 54 | 1010.9 |
| 20260503234216 | 61 | 323 | 3.0 | 5.0 | 0.00 | 0.03 | 0.03 | 49 | 1011.1 |
| 20260503233503 | 61 | 303 | 3.0 | 5.0 | 0.00 | 0.03 | 0.03 | 51 | 1011.1 |
| 20260503233003 | 60 | 312 | 2.0 | 4.0 | 0.00 | 0.03 | 0.03 | 54 | 1011.2 |
| 20260503232503 | 60 | 326 | 1.0 | 3.0 | 0.00 | 0.03 | 0.03 | 54 | 1011.3 |
| 20260503232003 | 60 | 305 | 1.0 | 2.0 | 0.00 | 0.03 | 0.03 | 58 | 1011.6 |
| 20260503231717 | 60 | 319 | 1.0 | 2.0 | 0.00 | 0.03 | 0.03 | 56 | 1011.6 |
| 20260503231003 | 59 | 137 | 1.0 | 2.0 | 0.00 | 0.03 | 0.03 | 62 | 1011.8 |
| 20260503230503 | 58 | 164 | 1.0 | 4.0 | 0.00 | 0.03 | 0.03 | 63 | 1012.0 |
| 20260503230003 | 58 | 170 | 2.0 | 7.0 | 0.00 | 0.03 | 0.03 | 57 | 1012.3 |
| 20260503225503 | 57 | 166 | 2.0 | 7.0 | 0.00 | 0.03 | 0.03 | 65 | 1012.5 |
| 20260503225003 | 56 | 167 | 5.0 | 14.0 | 0.00 | 0.03 | 0.03 | 66 | 1012.6 |
| 20260503224503 | 57 | 174 | 8.0 | 16.0 | 0.00 | 0.03 | 0.03 | 60 | 1012.6 |
| 20260503224003 | 60 | 164 | 7.0 | 16.0 | 0.00 | 0.03 | 0.03 | 54 | 1012.8 |
| 20260503223503 | 62 | 121 | 5.0 | 15.0 | 0.00 | 0.03 | 0.03 | 52 | 1012.8 |
| 20260503223003 | 63 | 90 | 5.0 | 15.0 | 0.00 | 0.03 | 0.03 | 50 | 1012.6 |
| 20260503222503 | 65 | 13 | 4.0 | 12.0 | 0.00 | 0.03 | 0.03 | 45 | 1012.4 |
| 20260503222003 | 66 | 351 | 4.0 | 11.0 | 0.00 | 0.03 | 0.03 | 42 | 1012.1 |
| 20260503221503 | 66 | 360 | 5.0 | 14.0 | 0.00 | 0.03 | 0.03 | 42 | 1011.9 |
| 20260503221003 | 66 | 354 | 8.0 | 16.0 | 0.00 | 0.03 | 0.03 | 43 | 1011.8 |
| 20260503220503 | 66 | 343 | 7.0 | 16.0 | 0.00 | 0.03 | 0.03 | 43 | 1011.8 |
| 20260503220003 | 66 | 325 | 4.0 | 11.0 | 0.02 | 0.03 | 0.03 | 41 | 1011.8 |
| 20260503215503 | 66 | 306 | 3.0 | 8.0 | 0.03 | 0.03 | 0.03 | 43 | 1011.8 |
| 20260503215003 | 66 | 299 | 3.0 | 7.0 | 0.03 | 0.03 | 0.03 | 43 | 1012.0 |
| 20260503214503 | 65 | 286 | 3.0 | 6.0 | 0.03 | 0.03 | 0.03 | 47 | 1012.0 |
| 20260503214003 | 63 | 279 | 3.0 | 5.0 | 0.03 | 0.03 | 0.03 | 46 | 1012.1 |
| 20260503213716 | 63 | 281 | 3.0 | 8.0 | 0.03 | 0.03 | 0.03 | 48 | 1012.1 |
| 20260503213005 | 62 | 291 | 3.0 | 8.0 | 0.03 | 0.03 | 0.03 | 54 | 1012.3 |
| 20260503212503 | 59 | 312 | 3.0 | 9.0 | 0.03 | 0.03 | 0.03 | 59 | 1012.4 |
| 20260503212003 | 58 | 272 | 4.0 | 9.0 | 0.03 | 0.03 | 0.03 | 56 | 1012.5 |
| 20260503211503 | 57 | 220 | 4.0 | 8.0 | 0.03 | 0.03 | 0.03 | 61 | 1012.5 |
| 20260503211003 | 57 | 166 | 3.0 | 12.0 | 0.03 | 0.03 | 0.03 | 63 | 1012.4 |
| 20260503210503 | 56 | 63 | 7.0 | 28.0 | 0.03 | 0.03 | 0.03 | 63 | 1012.4 |
| 20260503210003 | 58 | 56 | 12.0 | 28.0 | 0.01 | 0.01 | 0.01 | 60 | 1013.0 |
| 20260503205503 | 61 | 47 | 10.0 | 26.0 | 0.00 | 0.00 | 0.00 | 46 | 1011.8 |
| 20260503205217 | 63 | 38 | 8.0 | 21.0 | 0.00 | 0.00 | 0.00 | 42 | 1011.9 |
| 20260503204503 | 64 | 41 | 5.0 | 14.0 | 0.00 | 0.00 | 0.00 | 41 | 1012.2 |
| 20260503204003 | 68 | 37 | 3.0 | 10.0 | 0.00 | 0.00 | 0.00 | 33 | 1011.9 |
| 20260503203503 | 68 | 22 | 2.0 | 6.0 | 0.00 | 0.00 | 0.00 | 34 | 1012.1 |
| 20260503203217 | 68 | 34 | 2.0 | 3.0 | 0.00 | 0.00 | 0.00 | 35 | 1012.1 |
| 20260503202503 | 68 | 67 | 2.0 | 6.0 | 0.00 | 0.00 | 0.00 | 33 | 1012.2 |
| 20260503202003 | 69 | 61 | 3.0 | 6.0 | 0.00 | 0.00 | 0.00 | 33 | 1012.3 |
| 20260503201503 | 70 | 53 | 3.0 | 7.0 | 0.00 | 0.00 | 0.00 | 33 | 1012.3 |
| 20260503201003 | 69 | 52 | 3.0 | 8.0 | 0.00 | 0.00 | 0.00 | 34 | 1012.4 |
| 20260503200503 | 69 | 67 | 3.0 | 8.0 | 0.00 | 0.00 | 0.00 | 34 | 1012.4 |
| 20260503200003 | 69 | 75 | 3.0 | 8.0 | 0.00 | 0.00 | 0.00 | 32 | 1012.4 |
| 20260503195720 | 70 | 81 | 3.0 | 8.0 | 0.00 | 0.00 | 0.00 | 32 | 1012.5 |
| 20260503195003 | 70 | 106 | 3.0 | 8.0 | 0.00 | 0.00 | 0.00 | 32 | 1012.6 |
| 20260503194717 | 71 | 130 | 4.0 | 11.0 | 0.00 | 0.00 | 0.00 | 31 | 1012.6 |
| 20260503194003 | 73 | 166 | 4.0 | 11.0 | 0.00 | 0.00 | 0.00 | 32 | 1012.6 |
| 20260503193503 | 72 | 156 | 3.0 | 8.0 | 0.00 | 0.00 | 0.00 | 31 | 1012.6 |
| 20260503193003 | 70 | 171 | 4.0 | 12.0 | 0.00 | 0.00 | 0.00 | 32 | 1012.8 |
| 20260503192503 | 71 | 183 | 5.0 | 12.0 | 0.00 | 0.00 | 0.00 | 31 | 1013.1 |